Regional Weather Roundup
Issued by NWS

Home | Current Version | Previous Version | Graphics & Text | Print | Product List | Glossary On
Versions: 1 2 3 4 5 6 7 8 9 10 11 12 13 14 15 16 17 18 19 20 21 22 23 24 25 26 27 28 29 30 31 32 33 34 35 36 37 38 39 40 41 42 43 44 45 46 47 48 49 50
000
ASUS43 KLSX 281459
RWRMO

WEATHER SUMMARY FOR MISSOURI
NATIONAL WEATHER SERVICE SPRINGFIELD MO
1000 AM CDT SAT MAR 28 2015

NOTE: "FAIR" INDICATES FEW OR NO CLOUDS BELOW 12,000 FEET WITH NO
       SIGNIFICANT WEATHER AND/OR OBSTRUCTIONS TO VISIBILITY.
       CURRENT SKY AND/OR WEATHER CONDITIONS ARE NOT AVAILABLE FOR
       CHILLICOTHE AND FARMINGTON.

MOZ001>031-035>038-043-044-053-054-281600-
...NORTHERN AND WESTERN MISSOURI...

CITY           SKY/WX    TMP DP  RH WIND       PRES   REMARKS
KANSAS CTY INT CLOUDY    39  29  67 SE17      30.17R WCI  30
KANSAS C DTWN  CLOUDY    41  30  65 SE13      30.18R
LEE`S SUMMIT   CLOUDY    39  31  72 SE10      30.19R
ST JOSEPH      CLOUDY    39  29  67 SE15      30.19R
CHILLICOTHE      N/A     37  29  72 SE12      30.25R WCI  29
KIRKSVILLE     CLOUDY    36  19  50 SE13      30.26R WCI  27

$$
MOZ066>068-077>081-088>096-101>105-281600-
...SOUTHWEST MISSOURI...

CITY           SKY/WX    TMP DP  RH WIND       PRES   REMARKS
SPRINGFIELD    CLOUDY    39  25  57 E13       30.18R
JOPLIN         MOSUNNY   48  31  51 SE9       30.14R

$$
MOZ032>034-039>042-045>050-055>058-069>072-281600-
...CENTRAL MISSOURI...

CITY           SKY/WX    TMP DP  RH WIND       PRES   REMARKS
COLUMBIA       CLOUDY    35  26  69 SE9       30.25S WCI  28
JEFFERSON CITY CLOUDY    35  26  69 SE8       30.28R WCI  29
ROLLA          CLOUDY    33  27  78 S7        30.25R WCI  27
SEDALIA        CLOUDY    37  30  75 E13       30.24R WCI  29
OSAGE BEACH    CLOUDY    36  30  80 SE8       30.26R WCI  29

$$
MOZ051-052-059>065-281600-
...EAST CENTRAL MISSOURI...

CITY           SKY/WX    TMP DP  RH WIND       PRES   REMARKS
ST LOUIS INTL  MOSUNNY   35  17  47 SE8       30.32R WCI  29
SPIRIT OF STL  MOSUNNY   36  18  48 E7        30.31R
ST CHARLES     SUNNY     33  22  63 E10       30.32R WCI  25

$$
MOZ072>076-082>087-097>100-106>115-281600-
...SOUTH CENTRAL AND SOUTHEAST MISSOURI...

CITY           SKY/WX    TMP DP  RH WIND       PRES   REMARKS
CAPE GIRARDEAU SUNNY     37  18  46 VRB5      30.32R
FARMINGTON     MOSUNNY   36  18  48 E6        30.32R
POPLAR BLUFF   MOSUNNY   38  24  57 E6        30.30R
WEST PLAINS    LGT SNOW  32  29  88 SE6       30.26R VSB 3/4 WCI  26

$$



USA.gov is the U.S. government's official web portal to all federal, state and local government web resources and services.